Location: Newark
(34.9500°N, 139.9667°E)
Time: 16:10:54
(UTC+00:00)

Explorer 7 - Visible Passes

Search period start: 15 December 2019 00:00
Search period end: 25 December 2019 00:00
Orbit: 485 x 680 km, 50.3° (Epoch: 14 December)

Date Brightness Start Highest point End Pass type
(mag) Time Alt. Az. Time Alt. Az. Time Alt. Az.
15 Dec 9.0 08:59:54 10° NNW 09:03:03 17° NNE 09:03:06 17° NNE visible
16 Dec 8.8 09:04:41 10° NNW 09:08:05 20° NNE 09:08:05 20° NNE visible
17 Dec 8.4 09:09:26 10° NNW 09:13:11 26° NNE 09:13:11 26° NNE visible
18 Dec 7.9 09:14:12 10° NW 09:18:25 37° NNE 09:18:25 37° NNE visible
19 Dec 7.3 09:19:00 10° NW 09:23:51 55° NE 09:23:51 55° NE visible
20 Dec 7.1 09:23:54 10° NW 09:28:50 86° NE 09:29:34 65° ESE visible
21 Dec 7.7 09:28:54 10° WNW 09:33:44 58° SW 09:35:40 33° SSE visible
22 Dec 7.7 07:53:18 10° NW 07:57:58 42° NNE 08:02:36 10° ESE visible
22 Dec 8.7 09:34:07 10° WNW 09:38:33 35° SW 09:42:18 13° SSE visible
23 Dec 7.3 07:58:08 10° NW 08:03:00 64° NE 08:07:51 10° ESE visible
23 Dec 9.7 09:39:39 10° W 09:43:17 21° SW 09:46:51 10° S visible
24 Dec 7.4 08:03:02 10° NW 08:07:58 82° SW 08:12:50 10° SE visible
24 Dec 10.3 09:46:09 10° WSW 09:47:57 12° SW 09:49:45 10° SW visible
